Location: Banios
(43.0451°N, 0.2335°E)
Time: 13:23:41
(UTC+00:00)

A-11 Canister half - Pass Details

Date: 13 May 2021
Orbit: 1513 x 1686 km, 47.2° (Epoch: 14 June)

Event Time Altitude Azimuth Distance (km) Brightness Sun altitude
Rises 21:40:31 0° 295° (WNW) 4,680 12.5 -21.0°
Reaches altitude 10° 21:43:50 10° 287° (WNW) 3,710 11.7 -21.3°
Maximum altitude 21:52:01 36° 225° (SW) 2,303 9.8 -22.1°
Enters shadow 21:56:01 26° 185° (S) 2,729 9.8 -22.5°
Drops below altitude 10° 22:00:27 10° 164° (SSE) 3,808 - -22.9°
Sets 22:03:56 0° 156° (SSE) 4,817 - -23.2°
